User: anonymous   Login
Location: Unspecified
(0.0000°N, 0.0000°E)
Time: 03:41:04
(UTC+02:00)
Language:

Coronas F rocket - Orbit

View from above orbital plane
View from above orbital plane
View from above satellite
View from above satellite

Ground track
Ground track

The orbit data is extracted from the following two-line orbital elements,

1 26874U 01032B   16125.93658871 +.00024142 +00000-0 +13532-3 0  9995
2 26874 082.4593 329.1843 0007309 017.9418 342.2105 15.79098812828813
Epoch (UTC): 04 May 2016 22:28:41
Eccentricity: 0.0007309
inclination: 82.4593°
perigee height: 328 km
apogee height: 338 km
right ascension of ascending node: 329.1843°
argument of perigee: 17.9418°
revolutions per day: 15.79098812
mean anomaly at epoch: 342.2105°
orbit number at epoch: 82881

The dashed part of the orbit path shows where the satellite is in the earth's shadow,  

DLR